Probability
0 0 0 0 0 0 0 0 0 0 0 0 0 0 0 0 0 0 0 0 0 0 0 0 0 0 0 0 0 0 0 0 0 0 0 0 0 0
0 0 0 0 0 0 0 0 0 0 0 0 0 0 0 0 0 0 0 0 0 0 0 0 0 0 0 0 0 0 0 0 0 0 0 0 0 0
0 0 0 0 0 0 0 0 0 0 0 0 0 0 0 0 0 0 0 0 0 0 0 0 0 0 0 0 0 0 0 0 0 0 0 0 0 0
0 0 0 0 0 0 0 0 0 0 0 0 0 0 0 0 0 0 0 0 0 0 0 0 0 0 0 0 0 0 0 0 0 0 0 0 0 0
0 0 0 0 0 0 0 0 0 0 0 0 0 0 0 0 0 0 0 0 0 0 0 0 0 0 0 0 0 0 0 0 0 0 0 0 0 0
0 0 0 0 0 0 0 0 0 0 0 0 0 0 0 0 0 0 0 0 0 0 0 0 0 0 0 0 0 0 0 0 0 0 0 0 0 0
0 0 0 0 0 0 0 0 0 0 0 0 0 0 0 0 0 0 0 0 0 0 0 0 0 0 0 0 0 0 0 0 0 0 0 0 0 0
0 0 0 0 0 0 0 0 0 0 0 0 0 0 0 0 0 0 0 0 0 0 0 0 0 0 0 0 0 0 0 0 0 0 0 0 0 0
0 0 0 0 0 0 0 0 0 0 0 0 0 0 0 0 0 0 0 0 0 0 0 0 0 0 0 0 0 0 0 0 0 0 0 0 0 0
0 0 0 0 0 0 0 0 0 0 0 0 0 0 0 0 0 0 0 0 0 0 0 0 0 0 0 0 0 0 0 0 0 0 0 0 0 0
0 0 0 0 0 0 0 0 0 0 0 0 0 0 0 0 0 0 0 0 0 0 0 0 0 0 0 0 0 0 0 0 0 0 0 0 0 0
0 0 0 0 0 0 0 0 0 0 0 0 0 0 0 0 0 0 0 0 0 0 0 0 0 0 0 0 0 0 0 0 0 0 0 0 0 0
0 0 0 0 0 0 0 0 0 0 0 0 0 0 0 0 0 0 0 0 0 0 0 0 0 0 0 0 0 0 0 0 0 0 0 0 0 0
0 0 0 0 0 0 0 0 0 0 0 0 0 0 0 0 0 0 0 0 0 0 0 0 0 0 0 0 0 0 0 0 0 0 0 0 0 0
0 0 0 0 0 0 0 0 0 0 0 0 0 0 0 0 0 0 0 0 0 0 0 0 0 0 0 0 0 0 0 0 0 0 0 0 0 0
0 0 0 0 0 0 0 0 0 0 0 0 0 0 0 0 0 0 0 0 0 0 0 0 0 0 0 0 0 0 0 0 0 0 0 0 0 0
0 0 0 0 0 0 0 0 0 0 0 0 0 0 0 0 0 0 0 0 0 0 0 0 0 0 0 0 0 0 0 0 0 0 0 0 0 0
0 0 0 0 0 0 0 0 0 0 0 0 0 0 0 0 0 0 0 0 0 0 0 0 0 0 0 0 0 0 0 0 0 0 0 0 0 0
0 0 0 0 0 0 0 0 0 0 0 0 0 0 0 0 0 0 0 0 0 0 0 0 0 0 0 0 0 0 0 0 0 0 0 0 0 0
0 0 0 0 0 0 0 0 0 0 0 0 0 0 0 0 0 0 0 0 0 0 0 0 0 0 1 1 0 0 0 0 0 0 0 0 0 0
0 0 0 0 0 0 0 0 0 0 0 0 0 0 0 0 0 0 0 0 0 0 0 0 1 1 2 2 1 0 0 0 0 0 0 0 0 0
0 0 0 0 0 0 0 0 0 0 0 0 0 0 0 0 0 0 0 0 0 0 0 0 1 2 2 2 1 0 0 0 0 0 0 0 0 0
0 0 0 0 0 0 0 0 0 0 0 0 0 0 0 0 0 0 0 0 0 0 0 0 1 1 1 1 0 0 0 0 0 0 0 0 0 0
Wind_Speed
3 3 2 2 2 1 2 2 3 1 1 2 2 3 3 2 3 3 3 5 6 6 6 6 7 7 7 8 8 9 9 9 10 10 11 11 12 12
2 3 3 2 2 2 2 1 2 2 1 2 2 3 3 3 4 3 3 6 6 6 5 5 5 5 6 6 7 7 8 9 9 9 10 10 11 12
3 3 3 2 2 2 2 2 1 2 2 2 2 2 3 3 4 4 3 3 3 5 6 5 5 5 5 5 6 6 7 8 9 9 10 10 11 12
4 3 3 2 2 2 2 2 2 2 2 2 2 2 3 3 4 4 4 3 4 6 6 6 6 6 6 6 7 7 8 8 9 10 10 11 11 12
5 5 4 4 3 2 2 2 2 2 2 2 2 2 2 2 3 3 4 3 4 5 6 6 6 7 8 8 9 9 9 10 10 10 11 11 12 12
4 5 5 5 5 4 3 3 3 2 2 2 2 2 3 3 2 3 4 3 4 5 5 6 6 8 9 9 10 10 10 10 11 11 12 12 13 13
4 5 5 7 7 6 4 4 4 3 2 2 3 2 3 3 3 2 4 5 5 3 4 4 4 5 6 8 9 10 11 11 11 11 12 13 13 13
5 5 5 6 8 8 8 8 7 5 5 4 3 4 6 5 4 3 3 4 5 2 3 5 4 6 7 6 9 11 11 12 12 12 12 12 13 13
6 5 4 4 5 5 6 6 8 10 10 6 6 7 6 5 4 5 5 5 7 5 3 7 6 7 7 8 11 13 12 12 12 12 12 12 13 13
6 6 6 5 5 5 4 5 6 7 8 8 8 9 8 7 6 6 6 6 7 6 5 6 6 7 8 7 11 13 13 13 13 13 13 12 13 13
7 7 7 7 7 7 5 6 7 7 7 10 11 11 12 12 8 5 5 5 7 6 4 5 5 6 6 7 8 11 12 12 13 13 14 13 13 12
5 6 9 10 9 8 6 6 8 8 6 5 6 8 8 9 9 8 7 7 7 6 4 5 5 4 6 5 5 6 7 9 12 13 14 14 13 8
6 6 6 9 11 10 8 7 9 8 5 6 6 6 6 5 6 6 7 7 8 8 5 4 5 5 6 7 6 7 7 8 7 8 11 13 13 10
7 5 5 7 9 9 7 8 10 7 5 5 5 6 6 6 6 6 7 8 9 11 9 7 6 7 8 9 9 7 7 7 8 9 8 9 10 13
5 6 5 6 6 6 8 8 6 5 4 5 6 7 6 6 6 6 6 7 9 10 10 10 10 9 8 9 9 9 9 8 8 8 8 8 8 7
5 4 5 5 5 5 5 4 4 4 5 6 6 6 5 5 6 5 6 6 6 8 8 9 10 10 10 11 10 11 10 8 7 8 8 9 8 8
4 2 2 2 3 3 3 4 4 3 4 5 6 6 6 6 6 5 5 5 6 7 8 6 6 8 11 10 10 11 10 10 10 9 8 10 9 9
4 2 3 3 3 4 4 4 4 4 4 5 5 6 6 6 7 6 5 6 7 8 8 8 6 5 5 8 11 11 10 10 9 9 8 9 11 9
3 3 4 4 4 4 5 4 5 5 4 5 6 6 6 6 6 7 6 7 8 8 8 7 6 6 9 11 7 10 9 9 9 9 8 8 10 10
3 4 4 4 4 5 5 5 5 5 4 5 6 6 6 6 6 7 7 8 8 8 8 7 7 7 9 11 10 8 10 11 9 9 9 8 9 10
3 3 4 4 4 5 5 5 5 5 5 5 5 6 5 6 6 7 7 9 9 8 9 9 8 9 8 7 9 9 8 10 11 9 9 8 8 8
3 3 4 4 5 5 4 4 4 5 5 5 6 6 5 5 7 8 8 8 8 9 10 10 9 7 6 8 11 12 12 10 10 14 16 13 8 7
3 3 4 4 4 4 4 4 6 5 5 5 5 6 6 6 6 7 7 8 8 10 10 9 8 7 8 8 10 11 14 13 9 8 9 12 17 19
Wind_Direction
121 118 106 95 96 104 123 142 145 155 278 307 314 327 339 340 342 343 328 321 320 312 304 301 299 293 285 274 268 268 266 263 260 256 254 254 253 252
130 121 111 108 102 105 114 121 135 151 201 263 277 300 317 337 346 339 321 318 316 315 312 308 307 307 302 293 281 274 267 263 261 258 252 249 249 249
146 145 145 139 129 131 127 126 133 147 190 267 270 290 300 319 331 331 321 313 309 305 304 301 301 301 300 297 291 286 278 270 264 260 257 252 249 247
174 167 175 165 158 158 156 163 173 182 192 245 283 293 290 302 309 314 320 318 307 300 299 296 294 294 294 292 286 283 279 274 267 261 257 254 252 250
186 187 192 180 193 194 190 191 194 191 195 222 269 280 285 298 308 304 306 304 304 300 294 289 290 293 292 290 285 281 277 272 267 263 258 255 253 252
201 203 202 200 208 205 207 210 202 197 200 226 261 275 276 284 282 292 304 300 300 300 294 288 284 288 286 284 282 279 275 270 266 263 260 256 253 251
215 218 220 221 220 212 212 210 200 206 215 231 254 266 272 275 275 273 287 299 290 274 290 289 289 287 285 279 275 272 272 272 268 264 260 256 254 251
219 228 236 236 236 231 228 220 203 206 219 226 244 255 267 264 264 264 276 297 296 274 280 291 284 282 281 276 270 267 269 271 270 266 261 257 254 251
216 224 236 236 229 232 240 241 231 228 220 219 241 251 258 254 256 270 262 260 267 275 272 282 280 279 279 274 265 264 266 268 269 267 264 260 256 252
220 221 228 242 239 229 240 253 255 248 235 229 237 249 252 254 243 254 268 272 270 263 235 266 278 277 282 278 268 263 264 265 266 266 264 262 259 254
227 224 225 237 243 231 232 252 267 269 253 237 238 249 257 258 251 251 254 259 277 279 225 240 270 279 278 273 270 263 263 265 266 265 264 263 261 257
236 234 230 232 241 231 224 237 258 269 275 277 265 266 266 266 250 234 242 253 266 276 242 224 262 278 284 266 268 273 272 268 264 262 262 263 260 255
235 239 235 229 236 237 228 229 243 257 273 275 280 281 279 272 263 245 232 234 248 258 253 226 258 258 261 281 281 274 273 275 276 270 260 257 253 241
234 239 237 232 237 242 239 240 248 254 258 265 271 275 277 277 274 267 251 242 242 254 263 245 254 260 267 274 280 279 273 270 270 272 272 266 255 242
238 241 243 242 244 248 247 250 250 242 243 253 261 266 265 269 277 279 273 261 257 256 258 252 250 258 256 263 272 277 284 282 270 265 267 266 265 259
235 241 240 240 240 248 258 255 242 236 236 250 262 268 273 273 274 275 280 285 282 280 264 253 249 249 255 258 263 271 271 271 273 271 272 270 263 255
184 203 225 225 238 252 261 263 256 245 242 249 257 267 272 273 275 276 270 273 270 281 289 283 257 248 249 256 262 263 268 270 271 274 273 273 269 259
159 203 229 238 248 258 264 268 260 254 254 257 260 263 268 274 279 278 268 269 273 277 280 285 289 284 270 253 234 256 266 271 275 272 267 271 275 269
181 221 234 244 254 259 259 259 263 267 261 258 260 263 266 272 275 278 278 275 275 276 278 280 279 274 283 287 268 224 254 275 278 275 269 264 271 274
215 232 243 250 255 259 259 260 265 269 266 266 267 267 268 270 274 276 277 276 278 281 282 279 271 265 267 280 287 278 244 256 269 273 275 273 270 271
224 238 247 254 258 259 260 260 260 265 268 269 270 272 273 271 272 276 280 279 278 280 281 282 278 270 272 272 272 272 269 244 243 260 273 276 277 275
237 244 253 255 258 261 263 264 268 269 270 268 272 274 274 271 274 279 282 284 282 280 282 284 288 282 265 262 272 280 285 283 263 248 246 246 256 265
248 255 259 262 263 262 265 267 266 268 269 272 275 275 275 274 274 275 279 280 283 284 286 287 287 277 268 266 273 278 284 287 287 284 273 252 242 250